Time,TemperatureF,DewpointF,PressureIn,WindDirection,WindDirectionDegrees,WindSpeedMPH,WindSpeedGustMPH,Humidity,HourlyPrecipIn,Conditions,Clouds,dailyrainin,SoftwareType,DateUTC
2013-02-21 00:00:00,15.6,9.4,30.36,ESE,110,0.0,4.0,76,0.00,,,0.00,WeatherCatV1.10B1784,2013-02-21 06:00:00,
2013-02-21 00:05:00,15.5,9.3,30.36,ESE,117,4.0,5.0,76,0.00,,,0.00,WeatherCatV1.10B1784,2013-02-21 06:05:00,
2013-02-21 00:10:00,15.5,9.6,30.36,ESE,122,1.0,2.0,77,0.00,,,0.00,WeatherCatV1.10B1784,2013-02-21 06:10:00,
2013-02-21 00:15:00,15.5,9.6,30.36,SE,146,1.0,5.0,77,0.00,,,0.00,WeatherCatV1.10B1784,2013-02-21 06:15:00,
2013-02-21 00:20:00,15.4,9.5,30.37,ESE,116,2.0,3.0,77,0.00,,,0.00,WeatherCatV1.10B1784,2013-02-21 06:20:00,
2013-02-21 00:25:00,15.4,9.5,30.36,ESE,108,1.0,8.0,77,0.00,,,0.00,WeatherCatV1.10B1784,2013-02-21 06:25:00,
2013-02-21 00:30:00,15.4,9.8,30.37,ESE,114,2.0,3.0,78,0.00,,,0.00,WeatherCatV1.10B1784,2013-02-21 06:30:00,
2013-02-21 00:35:00,15.4,9.8,30.37,ESE,118,3.0,3.0,78,0.00,,,0.00,WeatherCatV1.10B1784,2013-02-21 06:35:00,
2013-02-21 00:40:00,15.4,9.8,30.37,SE,132,4.0,7.0,78,0.00,,,0.00,WeatherCatV1.10B1784,2013-02-21 06:40:00,
2013-02-21 00:45:00,15.3,9.7,30.37,East,101,0.0,3.0,78,0.00,,,0.00,WeatherCatV1.10B1784,2013-02-21 06:45:00,
2013-02-21 00:50:00,15.3,9.7,30.37,ESE,123,1.0,2.0,78,0.00,,,0.00,WeatherCatV1.10B1784,2013-02-21 06:50:00,
2013-02-21 00:55:00,15.3,9.7,30.38,ESE,111,1.0,7.0,78,0.00,,,0.00,WeatherCatV1.10B1784,2013-02-21 06:55:00,
2013-02-21 01:00:00,15.3,10.0,30.38,ESE,116,1.0,8.0,79,0.00,,,0.00,WeatherCatV1.10B1784,2013-02-21 07:00:00,
2013-02-21 01:05:00,15.3,10.0,30.38,ESE,104,2.0,4.0,79,0.00,,,0.00,WeatherCatV1.10B1784,2013-02-21 07:05:00,
2013-02-21 01:10:00,15.4,10.1,30.38,SE,139,1.0,4.0,79,0.00,,,0.00,WeatherCatV1.10B1784,2013-02-21 07:10:00,
2013-02-21 01:15:00,15.4,10.1,30.38,SE,137,0.0,1.0,79,0.00,,,0.00,WeatherCatV1.10B1784,2013-02-21 07:15:00,
2013-02-21 01:20:00,15.4,10.1,30.37,SE,134,2.0,8.0,79,0.00,,,0.00,WeatherCatV1.10B1784,2013-02-21 07:20:00,
2013-02-21 01:25:00,15.3,10.0,30.37,ESE,122,3.0,7.0,79,0.00,,,0.00,WeatherCatV1.10B1784,2013-02-21 07:25:00,
2013-02-21 01:30:00,15.3,10.0,30.37,ESE,118,1.0,5.0,79,0.00,,,0.00,WeatherCatV1.10B1784,2013-02-21 07:30:00,
2013-02-21 01:35:00,15.2,9.9,30.37,SE,136,4.0,4.0,79,0.00,,,0.00,WeatherCatV1.10B1784,2013-02-21 07:35:00,
2013-02-21 01:40:00,15.1,9.8,30.37,SE,131,5.0,5.0,79,0.00,,,0.00,WeatherCatV1.10B1784,2013-02-21 07:40:00,
2013-02-21 01:45:00,15.0,10.0,30.37,SE,146,3.0,4.0,80,0.00,,,0.00,WeatherCatV1.10B1784,2013-02-21 07:45:00,
2013-02-21 01:50:00,14.9,9.9,30.36,ESE,114,4.0,5.0,80,0.00,,,0.00,WeatherCatV1.10B1784,2013-02-21 07:50:00,
2013-02-21 01:55:00,14.9,9.9,30.35,ESE,114,3.0,6.0,80,0.00,,,0.00,WeatherCatV1.10B1784,2013-02-21 07:55:00,
2013-02-21 02:00:00,14.8,9.8,30.35,SE,128,0.0,2.0,80,0.00,,,0.00,WeatherCatV1.10B1784,2013-02-21 08:00:00,
2013-02-21 02:05:00,14.8,9.8,30.35,ESE,107,1.0,6.0,80,0.00,,,0.00,WeatherCatV1.10B1784,2013-02-21 08:05:00,
2013-02-21 02:10:00,14.8,9.8,30.34,ESE,114,1.0,5.0,80,0.00,,,0.00,WeatherCatV1.10B1784,2013-02-21 08:10:00,
2013-02-21 02:15:00,14.8,10.0,30.34,East,93,2.0,2.0,81,0.00,,,0.00,WeatherCatV1.10B1784,2013-02-21 08:15:00,
2013-02-21 02:20:00,14.8,10.0,30.34,East,101,0.0,5.0,81,0.00,,,0.00,WeatherCatV1.10B1784,2013-02-21 08:20:00,
2013-02-21 02:25:00,14.7,9.9,30.33,ESE,112,1.0,4.0,81,0.00,,,0.00,WeatherCatV1.10B1784,2013-02-21 08:25:00,
2013-02-21 02:30:00,14.7,9.9,30.33,ESE,102,3.0,5.0,81,0.00,,,0.00,WeatherCatV1.10B1784,2013-02-21 08:30:00,
2013-02-21 02:35:00,14.6,9.9,30.33,East,95,3.0,6.0,81,0.00,,,0.00,WeatherCatV1.10B1784,2013-02-21 08:35:00,
2013-02-21 02:40:00,14.6,9.9,30.33,ESE,114,2.0,7.0,81,0.00,,,0.00,WeatherCatV1.10B1784,2013-02-21 08:40:00,
2013-02-21 02:45:00,14.6,9.9,30.33,ESE,116,0.0,3.0,81,0.00,,,0.00,WeatherCatV1.10B1784,2013-02-21 08:45:00,
2013-02-21 02:50:00,14.5,9.8,30.33,SE,125,0.0,4.0,81,0.00,,,0.00,WeatherCatV1.10B1784,2013-02-21 08:50:00,
2013-02-21 02:55:00,14.5,9.8,30.32,ESE,122,0.0,2.0,81,0.00,,,0.00,WeatherCatV1.10B1784,2013-02-21 08:55:00,
2013-02-21 03:00:00,14.4,9.7,30.32,ESE,111,2.0,5.0,81,0.00,,,0.00,WeatherCatV1.10B1784,2013-02-21 09:00:00,
2013-02-21 03:05:00,14.4,9.9,30.32,ESE,121,1.0,2.0,82,0.00,,,0.00,WeatherCatV1.10B1784,2013-02-21 09:05:00,
2013-02-21 03:10:00,14.4,9.9,30.31,ESE,118,2.0,2.0,82,0.00,,,0.00,WeatherCatV1.10B1784,2013-02-21 09:10:00,
2013-02-21 03:15:00,14.4,9.9,30.31,ESE,116,2.0,3.0,82,0.00,,,0.00,WeatherCatV1.10B1784,2013-02-21 09:15:00,
2013-02-21 03:20:00,14.3,9.8,30.30,ESE,110,2.0,2.0,82,0.00,,,0.00,WeatherCatV1.10B1784,2013-02-21 09:20:00,
2013-02-21 03:25:00,14.3,9.8,30.30,ESE,115,0.0,3.0,82,0.00,,,0.00,WeatherCatV1.10B1784,2013-02-21 09:25:00,
2013-02-21 03:30:00,14.2,9.7,30.30,ESE,118,2.0,4.0,82,0.00,,,0.00,WeatherCatV1.10B1784,2013-02-21 09:30:00,
2013-02-21 03:35:00,14.2,10.0,30.29,ESE,110,3.0,3.0,83,0.00,,,0.00,WeatherCatV1.10B1784,2013-02-21 09:35:00,
2013-02-21 03:40:00,14.1,9.9,30.29,ESE,116,2.0,3.0,83,0.00,,,0.00,WeatherCatV1.10B1784,2013-02-21 09:40:00,
2013-02-21 03:45:00,14.1,9.9,30.28,East,89,1.0,2.0,83,0.00,,,0.00,WeatherCatV1.10B1784,2013-02-21 09:45:00,
2013-02-21 03:50:00,14.0,9.8,30.28,ESE,114,1.0,2.0,83,0.00,,,0.00,WeatherCatV1.10B1784,2013-02-21 09:50:00,
2013-02-21 03:55:00,13.9,9.7,30.28,ESE,110,2.0,3.0,83,0.00,,,0.00,WeatherCatV1.10B1784,2013-02-21 09:55:00,
2013-02-21 04:00:00,13.9,9.7,30.28,ESE,105,2.0,2.0,83,0.00,,,0.00,WeatherCatV1.10B1784,2013-02-21 10:00:00,
2013-02-21 04:05:00,13.7,9.8,30.28,ESE,105,0.0,3.0,84,0.00,,,0.00,WeatherCatV1.10B1784,2013-02-21 10:05:00,
2013-02-21 04:10:00,13.7,9.8,30.27,East,87,1.0,5.0,84,0.00,,,0.00,WeatherCatV1.10B1784,2013-02-21 10:10:00,
2013-02-21 04:15:00,13.6,9.7,30.27,East,99,0.0,3.0,84,0.00,,,0.00,WeatherCatV1.10B1784,2013-02-21 10:15:00,
2013-02-21 04:20:00,13.5,9.6,30.27,East,99,2.0,3.0,84,0.00,,,0.00,WeatherCatV1.10B1784,2013-02-21 10:20:00,
2013-02-21 04:25:00,13.5,9.6,30.27,ESE,106,1.0,2.0,84,0.00,,,0.00,WeatherCatV1.10B1784,2013-02-21 10:25:00,
2013-02-21 04:30:00,13.4,9.5,30.27,ESE,105,1.0,3.0,84,0.00,,,0.00,WeatherCatV1.10B1784,2013-02-21 10:30:00,
2013-02-21 04:35:00,13.4,9.8,30.26,ESE,120,1.0,3.0,85,0.00,,,0.00,WeatherCatV1.10B1784,2013-02-21 10:35:00,
2013-02-21 04:40:00,13.3,9.7,30.27,East,97,1.0,3.0,85,0.00,,,0.00,WeatherCatV1.10B1784,2013-02-21 10:40:00,
2013-02-21 04:45:00,13.3,9.7,30.28,ESE,121,0.0,2.0,85,0.00,,,0.00,WeatherCatV1.10B1784,2013-02-21 10:45:00,
2013-02-21 04:50:00,13.2,9.6,30.29,ESE,118,1.0,2.0,85,0.00,,,0.00,WeatherCatV1.10B1784,2013-02-21 10:50:00,
2013-02-21 04:55:00,13.2,9.6,30.32,ESE,115,1.0,3.0,85,0.00,,,0.00,WeatherCatV1.10B1784,2013-02-21 10:55:00,
2013-02-21 05:00:00,13.2,9.6,30.33,SE,145,1.0,5.0,85,0.00,,,0.00,WeatherCatV1.10B1784,2013-02-21 11:00:00,
2013-02-21 05:05:00,13.4,9.8,30.32,ESE,110,2.0,3.0,85,0.00,,,0.00,WeatherCatV1.10B1784,2013-02-21 11:05:00,
2013-02-21 05:10:00,13.4,9.8,30.33,ESE,114,1.0,4.0,85,0.00,,,0.00,WeatherCatV1.10B1784,2013-02-21 11:10:00,
2013-02-21 05:15:00,13.4,9.8,30.33,SE,130,0.0,2.0,85,0.00,,,0.00,WeatherCatV1.10B1784,2013-02-21 11:15:00,
2013-02-21 05:20:00,13.5,9.8,30.32,ESE,116,1.0,4.0,85,0.00,,,0.00,WeatherCatV1.10B1784,2013-02-21 11:20:00,
2013-02-21 05:25:00,13.5,9.8,30.33,ESE,121,3.0,6.0,85,0.00,,,0.00,WeatherCatV1.10B1784,2013-02-21 11:25:00,
2013-02-21 05:30:00,13.5,9.8,30.33,ESE,117,0.0,2.0,85,0.00,,,0.00,WeatherCatV1.10B1784,2013-02-21 11:30:00,
2013-02-21 05:35:00,13.5,9.8,30.32,ESE,103,1.0,3.0,85,0.00,,,0.00,WeatherCatV1.10B1784,2013-02-21 11:35:00,
2013-02-21 05:40:00,13.5,9.8,30.31,East,101,2.0,5.0,85,0.00,,,0.00,WeatherCatV1.10B1784,2013-02-21 11:40:00,
2013-02-21 05:45:00,13.5,9.8,30.31,SE,134,1.0,4.0,85,0.00,,,0.00,WeatherCatV1.10B1784,2013-02-21 11:45:00,
2013-02-21 05:50:00,13.5,9.8,30.30,ESE,117,3.0,6.0,85,0.00,,,0.00,WeatherCatV1.10B1784,2013-02-21 11:50:00,
2013-02-21 05:55:00,13.5,9.8,30.30,ESE,102,2.0,2.0,85,0.00,,,0.00,WeatherCatV1.10B1784,2013-02-21 11:55:00,
2013-02-21 06:00:00,13.6,9.9,30.30,ENE,74,4.0,7.0,85,0.00,,,0.00,WeatherCatV1.10B1784,2013-02-21 12:00:00,
2013-02-21 06:05:00,13.7,10.0,30.29,East,93,0.0,2.0,85,0.00,,,0.00,WeatherCatV1.10B1784,2013-02-21 12:05:00,
2013-02-21 06:10:00,13.8,10.1,30.28,SE,126,3.0,4.0,85,0.00,,,0.00,WeatherCatV1.10B1784,2013-02-21 12:10:00,
2013-02-21 06:15:00,13.9,10.2,30.28,ESE,118,1.0,4.0,85,0.00,,,0.00,WeatherCatV1.10B1784,2013-02-21 12:15:00,
2013-02-21 06:20:00,14.0,10.3,30.28,East,95,0.0,3.0,85,0.00,,,0.00,WeatherCatV1.10B1784,2013-02-21 12:20:00,
2013-02-21 06:25:00,14.0,10.1,30.29,East,95,1.0,2.0,84,0.00,,,0.00,WeatherCatV1.10B1784,2013-02-21 12:25:00,
2013-02-21 06:30:00,14.1,10.2,30.28,ENE,66,2.0,3.0,84,0.00,,,0.00,WeatherCatV1.10B1784,2013-02-21 12:30:00,
2013-02-21 06:35:00,14.0,10.1,30.28,East,99,1.0,1.0,84,0.00,,,0.00,WeatherCatV1.10B1784,2013-02-21 12:35:00,
2013-02-21 06:40:00,14.0,10.1,30.28,ESE,117,2.0,5.0,84,0.00,,,0.00,WeatherCatV1.10B1784,2013-02-21 12:40:00,
2013-02-21 06:45:00,14.1,10.2,30.28,ESE,113,2.0,4.0,84,0.00,,,0.00,WeatherCatV1.10B1784,2013-02-21 12:45:00,
2013-02-21 06:50:00,14.2,10.3,30.28,ESE,117,2.0,5.0,84,0.00,,,0.00,WeatherCatV1.10B1784,2013-02-21 12:50:00,
2013-02-21 06:51:00,14.2,10.3,30.28,ESE,114,0.0,2.0,84,0.00,,,0.00,WeatherCatV1.10B1784,2013-02-21 12:51:00,
2013-02-21 06:56:00,14.2,10.3,30.28,ESE,114,1.0,1.0,84,0.00,,,0.00,WeatherCatV1.10B1784,2013-02-21 12:56:00,
2013-02-21 07:01:00,14.2,10.3,30.28,ENE,63,4.0,7.0,84,0.00,,,0.00,WeatherCatV1.10B1784,2013-02-21 13:01:00,
2013-02-21 07:06:00,14.3,10.1,30.28,ESE,117,0.0,3.0,83,0.00,,,0.00,WeatherCatV1.10B1784,2013-02-21 13:06:00,
2013-02-21 07:11:00,14.3,10.1,30.28,ESE,106,1.0,3.0,83,0.00,,,0.00,WeatherCatV1.10B1784,2013-02-21 13:11:00,
2013-02-21 07:16:00,14.3,10.1,30.28,East,100,0.0,2.0,83,0.00,,,0.00,WeatherCatV1.10B1784,2013-02-21 13:16:00,
2013-02-21 07:21:00,14.3,10.1,30.27,East,87,1.0,5.0,83,0.00,,,0.00,WeatherCatV1.10B1784,2013-02-21 13:21:00,
2013-02-21 07:26:00,14.3,10.1,30.27,East,96,0.0,2.0,83,0.00,,,0.00,WeatherCatV1.10B1784,2013-02-21 13:26:00,
2013-02-21 07:31:00,14.4,10.2,30.27,ESE,114,0.0,2.0,83,0.00,,,0.00,WeatherCatV1.10B1784,2013-02-21 13:31:00,
2013-02-21 07:36:00,14.4,10.2,30.26,ESE,116,2.0,3.0,83,0.00,,,0.00,WeatherCatV1.10B1784,2013-02-21 13:36:00,
2013-02-21 07:41:00,14.4,10.2,30.27,ESE,113,1.0,3.0,83,0.00,,,0.00,WeatherCatV1.10B1784,2013-02-21 13:41:00,
2013-02-21 07:46:00,14.5,10.3,30.28,East,96,2.0,5.0,83,0.00,,,0.00,WeatherCatV1.10B1784,2013-02-21 13:46:00,
2013-02-21 07:51:00,14.6,10.1,30.28,ESE,106,1.0,5.0,82,0.00,,,0.00,WeatherCatV1.10B1784,2013-02-21 13:51:00,
2013-02-21 07:56:00,14.8,10.3,30.28,ESE,102,0.0,4.0,82,0.00,,,0.00,WeatherCatV1.10B1784,2013-02-21 13:56:00,
2013-02-21 08:01:00,14.8,10.3,30.28,ESE,121,0.0,4.0,82,0.00,,,0.00,WeatherCatV1.10B1784,2013-02-21 14:01:00,
2013-02-21 08:06:00,14.9,10.4,30.27,ESE,110,0.0,4.0,82,0.00,,,0.00,WeatherCatV1.10B1784,2013-02-21 14:06:00,
2013-02-21 08:11:00,15.0,10.5,30.28,East,84,3.0,3.0,82,0.00,,,0.00,WeatherCatV1.10B1784,2013-02-21 14:11:00,
2013-02-21 08:16:00,15.1,10.3,30.28,ESE,107,1.0,4.0,81,0.00,,,0.00,WeatherCatV1.10B1784,2013-02-21 14:16:00,
2013-02-21 08:21:00,15.2,10.7,30.28,ESE,122,3.0,3.0,82,0.00,,,0.00,WeatherCatV1.10B1784,2013-02-21 14:21:00,
2013-02-21 08:26:00,15.3,10.8,30.28,East,99,1.0,3.0,82,0.00,,,0.00,WeatherCatV1.10B1784,2013-02-21 14:26:00,
2013-02-21 08:31:00,15.4,10.6,30.28,SE,128,3.0,3.0,81,0.00,,,0.00,WeatherCatV1.10B1784,2013-02-21 14:31:00,
2013-02-21 08:36:00,15.5,10.7,30.28,SE,124,2.0,5.0,81,0.00,,,0.00,WeatherCatV1.10B1784,2013-02-21 14:36:00,
2013-02-21 08:41:00,15.7,10.9,30.28,ENE,78,1.0,3.0,81,0.00,,,0.00,WeatherCatV1.10B1784,2013-02-21 14:41:00,
2013-02-21 08:46:00,15.9,11.1,30.28,East,95,2.0,3.0,81,0.00,,,0.00,WeatherCatV1.10B1784,2013-02-21 14:46:00,
2013-02-21 08:51:00,16.0,10.9,30.28,East,99,1.0,5.0,80,0.00,,,0.00,WeatherCatV1.10B1784,2013-02-21 14:51:00,
2013-02-21 08:56:00,16.2,11.1,30.28,East,101,1.0,2.0,80,0.00,,,0.00,WeatherCatV1.10B1784,2013-02-21 14:56:00,
2013-02-21 09:01:00,16.3,11.2,30.28,ESE,102,1.0,3.0,80,0.00,,,0.00,WeatherCatV1.10B1784,2013-02-21 15:01:00,
2013-02-21 09:06:00,16.5,11.4,30.28,ESE,113,0.0,5.0,80,0.00,,,0.00,WeatherCatV1.10B1784,2013-02-21 15:06:00,
2013-02-21 09:11:00,16.7,11.3,30.28,ESE,122,1.0,5.0,79,0.00,,,0.00,WeatherCatV1.10B1784,2013-02-21 15:11:00,
2013-02-21 09:16:00,16.8,11.4,30.28,ESE,118,0.0,2.0,79,0.00,,,0.00,WeatherCatV1.10B1784,2013-02-21 15:16:00,
2013-02-21 09:21:00,17.0,11.6,30.28,ESE,114,0.0,2.0,79,0.00,,,0.00,WeatherCatV1.10B1784,2013-02-21 15:21:00,
2013-02-21 09:26:00,17.3,11.6,30.29,East,83,1.0,2.0,78,0.00,,,0.00,WeatherCatV1.10B1784,2013-02-21 15:26:00,
2013-02-21 09:31:00,17.5,11.8,30.29,East,99,2.0,6.0,78,0.00,,,0.00,WeatherCatV1.10B1784,2013-02-21 15:31:00,
2013-02-21 09:36:00,17.7,12.0,30.29,ESE,109,1.0,4.0,78,0.00,,,0.00,WeatherCatV1.10B1784,2013-02-21 15:36:00,
2013-02-21 09:41:00,17.8,11.8,30.29,ESE,106,1.0,6.0,77,0.00,,,0.00,WeatherCatV1.10B1784,2013-02-21 15:41:00,
2013-02-21 09:46:00,18.0,12.0,30.29,East,92,2.0,5.0,77,0.00,,,0.00,WeatherCatV1.10B1784,2013-02-21 15:46:00,
2013-02-21 09:51:00,18.1,12.1,30.29,ESE,109,0.0,5.0,77,0.00,,,0.00,WeatherCatV1.10B1784,2013-02-21 15:51:00,
2013-02-21 09:56:00,18.3,12.0,30.29,ESE,112,3.0,4.0,76,0.00,,,0.00,WeatherCatV1.10B1784,2013-02-21 15:56:00,
2013-02-21 10:01:00,18.6,12.3,30.30,ESE,112,2.0,3.0,76,0.00,,,0.00,WeatherCatV1.10B1784,2013-02-21 16:01:00,
2013-02-21 10:06:00,18.7,12.4,30.29,ESE,112,1.0,7.0,76,0.00,,,0.00,WeatherCatV1.10B1784,2013-02-21 16:06:00,
2013-02-21 10:11:00,18.8,12.5,30.29,ESE,113,1.0,5.0,76,0.00,,,0.00,WeatherCatV1.10B1784,2013-02-21 16:11:00,
2013-02-21 10:16:00,18.9,12.3,30.29,ESE,108,2.0,9.0,75,0.00,,,0.00,WeatherCatV1.10B1784,2013-02-21 16:16:00,
2013-02-21 10:21:00,19.0,12.4,30.28,ESE,104,1.0,2.0,75,0.00,,,0.00,WeatherCatV1.10B1784,2013-02-21 16:21:00,
2013-02-21 10:26:00,19.3,12.7,30.28,SE,133,3.0,3.0,75,0.00,,,0.00,WeatherCatV1.10B1784,2013-02-21 16:26:00,
2013-02-21 10:31:00,19.4,12.5,30.28,ESE,121,2.0,7.0,74,0.00,,,0.00,WeatherCatV1.10B1784,2013-02-21 16:31:00,
2013-02-21 10:36:00,19.7,12.8,30.28,ESE,115,4.0,4.0,74,0.00,,,0.00,WeatherCatV1.10B1784,2013-02-21 16:36:00,
2013-02-21 10:41:00,19.9,12.7,30.28,ENE,57,5.0,7.0,73,0.00,,,0.00,WeatherCatV1.10B1784,2013-02-21 16:41:00,
2013-02-21 10:46:00,20.1,12.9,30.28,ESE,117,2.0,8.0,73,0.00,,,0.00,WeatherCatV1.10B1784,2013-02-21 16:46:00,
2013-02-21 10:51:00,20.1,12.5,30.28,ESE,116,3.0,3.0,72,0.00,,,0.00,WeatherCatV1.10B1784,2013-02-21 16:51:00,
2013-02-21 10:56:00,20.2,12.6,30.28,ESE,111,3.0,8.0,72,0.00,,,0.00,WeatherCatV1.10B1784,2013-02-21 16:56:00,
2013-02-21 11:01:00,20.3,12.4,30.27,ESE,112,1.0,4.0,71,0.00,,,0.00,WeatherCatV1.10B1784,2013-02-21 17:01:00,
2013-02-21 11:06:00,20.6,12.7,30.27,ESE,116,2.0,3.0,71,0.00,,,0.00,WeatherCatV1.10B1784,2013-02-21 17:06:00,
2013-02-21 11:11:00,20.9,12.7,30.27,East,92,0.0,7.0,70,0.00,,,0.00,WeatherCatV1.10B1784,2013-02-21 17:11:00,
2013-02-21 11:16:00,21.2,12.6,30.26,ESE,121,3.0,7.0,69,0.00,,,0.00,WeatherCatV1.10B1784,2013-02-21 17:16:00,
2013-02-21 11:21:00,21.4,12.5,30.26,ESE,103,2.0,7.0,68,0.00,,,0.00,WeatherCatV1.10B1784,2013-02-21 17:21:00,
2013-02-21 11:26:00,21.8,12.9,30.26,ESE,118,1.0,7.0,68,0.00,,,0.00,WeatherCatV1.10B1784,2013-02-21 17:26:00,
2013-02-21 11:31:00,22.1,12.5,30.26,ESE,112,9.0,9.0,66,0.00,,,0.00,WeatherCatV1.10B1784,2013-02-21 17:31:00,
2013-02-21 11:36:00,22.2,12.3,30.25,East,100,1.0,4.0,65,0.00,,,0.00,WeatherCatV1.10B1784,2013-02-21 17:36:00,
2013-02-21 11:41:00,22.4,12.4,30.25,ESE,113,4.0,4.0,65,0.00,,,0.00,WeatherCatV1.10B1784,2013-02-21 17:41:00,
2013-02-21 11:46:00,22.6,12.3,30.25,ESE,114,3.0,5.0,64,0.00,,,0.00,WeatherCatV1.10B1784,2013-02-21 17:46:00,
2013-02-21 11:51:00,22.7,12.4,30.24,ESE,112,3.0,3.0,64,0.00,,,0.00,WeatherCatV1.10B1784,2013-02-21 17:51:00,
2013-02-21 11:56:00,23.2,12.5,30.24,ESE,114,3.0,8.0,63,0.00,,,0.00,WeatherCatV1.10B1784,2013-02-21 17:56:00,
2013-02-21 12:01:00,23.4,12.7,30.24,East,85,3.0,9.0,63,0.00,,,0.00,WeatherCatV1.10B1784,2013-02-21 18:01:00,
2013-02-21 12:06:00,23.7,12.6,30.24,ESE,108,3.0,5.0,62,0.00,,,0.00,WeatherCatV1.10B1784,2013-02-21 18:06:00,
2013-02-21 12:11:00,24.0,12.9,30.23,East,91,3.0,8.0,62,0.00,,,0.00,WeatherCatV1.10B1784,2013-02-21 18:11:00,
2013-02-21 12:16:00,24.1,12.6,30.23,ESE,122,2.0,4.0,61,0.00,,,0.00,WeatherCatV1.10B1784,2013-02-21 18:16:00,
2013-02-21 12:21:00,24.2,12.3,30.23,ESE,109,4.0,7.0,60,0.00,,,0.00,WeatherCatV1.10B1784,2013-02-21 18:21:00,
2013-02-21 12:26:00,24.2,12.7,30.22,NE,54,4.0,4.0,61,0.00,,,0.00,WeatherCatV1.10B1784,2013-02-21 18:26:00,
2013-02-21 12:31:00,24.3,12.4,30.22,ESE,117,2.0,4.0,60,0.00,,,0.00,WeatherCatV1.10B1784,2013-02-21 18:31:00,
2013-02-21 12:36:00,24.5,12.6,30.22,East,99,3.0,7.0,60,0.00,,,0.00,WeatherCatV1.10B1784,2013-02-21 18:36:00,
2013-02-21 12:41:00,24.7,12.8,30.21,ESE,108,2.0,7.0,60,0.00,,,0.00,WeatherCatV1.10B1784,2013-02-21 18:41:00,
2013-02-21 12:46:00,24.6,12.3,30.20,East,91,2.0,5.0,59,0.00,,,0.00,WeatherCatV1.10B1784,2013-02-21 18:46:00,
2013-02-21 12:51:00,24.7,12.8,30.20,East,82,2.0,4.0,60,0.00,,,0.00,WeatherCatV1.10B1784,2013-02-21 18:51:00,
2013-02-21 12:56:00,24.8,12.5,30.20,ENE,64,4.0,9.0,59,0.00,,,0.00,WeatherCatV1.10B1784,2013-02-21 18:56:00,
2013-02-21 13:01:00,24.7,12.4,30.20,East,98,2.0,9.0,59,0.00,,,0.00,WeatherCatV1.10B1784,2013-02-21 19:01:00,
2013-02-21 13:06:00,24.7,12.8,30.19,ESE,106,5.0,6.0,60,0.00,,,0.00,WeatherCatV1.10B1784,2013-02-21 19:06:00,
2013-02-21 13:11:00,24.7,12.8,30.19,ENE,65,4.0,7.0,60,0.00,,,0.00,WeatherCatV1.10B1784,2013-02-21 19:11:00,
2013-02-21 13:16:00,24.7,12.8,30.19,East,98,1.0,3.0,60,0.00,,,0.00,WeatherCatV1.10B1784,2013-02-21 19:16:00,
2013-02-21 13:21:00,24.8,12.9,30.19,ENE,66,5.0,5.0,60,0.00,,,0.00,WeatherCatV1.10B1784,2013-02-21 19:21:00,
2013-02-21 13:26:00,24.6,12.7,30.18,ESE,119,3.0,4.0,60,0.00,,,0.00,WeatherCatV1.10B1784,2013-02-21 19:26:00,
2013-02-21 13:31:00,24.4,12.9,30.18,East,80,4.0,7.0,61,0.00,,,0.00,WeatherCatV1.10B1784,2013-02-21 19:31:00,
2013-02-21 13:36:00,24.4,12.9,30.18,ESE,106,3.0,3.0,61,0.00,,,0.00,WeatherCatV1.10B1784,2013-02-21 19:36:00,
2013-02-21 13:41:00,24.4,12.9,30.18,ESE,102,2.0,5.0,61,0.00,,,0.00,WeatherCatV1.10B1784,2013-02-21 19:41:00,
2013-02-21 13:46:00,24.3,12.8,30.17,East,97,3.0,8.0,61,0.00,,,0.00,WeatherCatV1.10B1784,2013-02-21 19:46:00,
2013-02-21 13:51:00,24.2,12.7,30.17,ENE,70,1.0,6.0,61,0.00,,,0.00,WeatherCatV1.10B1784,2013-02-21 19:51:00,
2013-02-21 13:56:00,24.2,12.7,30.16,ESE,108,2.0,8.0,61,0.00,,,0.00,WeatherCatV1.10B1784,2013-02-21 19:56:00,
2013-02-21 14:01:00,24.2,12.7,30.16,East,98,5.0,7.0,61,0.00,,,0.00,WeatherCatV1.10B1784,2013-02-21 20:01:00,
2013-02-21 14:06:00,24.0,12.5,30.16,East,93,3.0,9.0,61,0.00,,,0.00,WeatherCatV1.10B1784,2013-02-21 20:06:00,
2013-02-21 14:11:00,23.9,12.8,30.16,ESE,114,1.0,3.0,62,0.00,,,0.00,WeatherCatV1.10B1784,2013-02-21 20:11:00,
2013-02-21 14:16:00,23.9,12.8,30.15,East,95,1.0,5.0,62,0.00,,,0.00,WeatherCatV1.10B1784,2013-02-21 20:16:00,
2013-02-21 14:21:00,23.9,13.2,30.15,South,187,2.0,8.0,63,0.00,,,0.00,WeatherCatV1.10B1784,2013-02-21 20:21:00,
2013-02-21 14:26:00,23.8,13.1,30.15,East,82,1.0,4.0,63,0.00,,,0.00,WeatherCatV1.10B1784,2013-02-21 20:26:00,
2013-02-21 14:31:00,23.7,13.0,30.15,East,88,1.0,11.0,63,0.00,,,0.00,WeatherCatV1.10B1784,2013-02-21 20:31:00,
2013-02-21 14:36:00,23.7,13.0,30.15,ENE,71,4.0,9.0,63,0.00,,,0.00,WeatherCatV1.10B1784,2013-02-21 20:36:00,
2013-02-21 14:41:00,23.7,13.0,30.15,East,83,3.0,5.0,63,0.00,,,0.00,WeatherCatV1.10B1784,2013-02-21 20:41:00,
2013-02-21 14:46:00,23.7,13.0,30.15,ESE,106,6.0,7.0,63,0.00,,,0.00,WeatherCatV1.10B1784,2013-02-21 20:46:00,
2013-02-21 14:51:00,23.6,13.2,30.15,ESE,111,2.0,6.0,64,0.00,,,0.00,WeatherCatV1.10B1784,2013-02-21 20:51:00,
2013-02-21 14:56:00,23.5,13.1,30.15,East,92,5.0,7.0,64,0.00,,,0.00,WeatherCatV1.10B1784,2013-02-21 20:56:00,
2013-02-21 15:01:00,23.5,13.1,30.15,East,94,2.0,4.0,64,0.00,,,0.00,WeatherCatV1.10B1784,2013-02-21 21:01:00,
2013-02-21 15:06:00,23.5,13.5,30.15,ENE,78,2.0,3.0,65,0.00,,,0.00,WeatherCatV1.10B1784,2013-02-21 21:06:00,
2013-02-21 15:11:00,23.6,13.6,30.15,ESE,110,0.0,3.0,65,0.00,,,0.00,WeatherCatV1.10B1784,2013-02-21 21:11:00,
2013-02-21 15:16:00,23.6,13.9,30.15,NE,45,4.0,5.0,66,0.00,,,0.00,WeatherCatV1.10B1784,2013-02-21 21:16:00,
2013-02-21 15:21:00,23.4,14.1,30.15,ESE,103,10.0,10.0,67,0.00,,,0.00,WeatherCatV1.10B1784,2013-02-21 21:21:00,
2013-02-21 15:26:00,23.2,13.6,30.15,East,86,3.0,10.0,66,0.00,,,0.00,WeatherCatV1.10B1784,2013-02-21 21:26:00,
2013-02-21 15:31:00,23.0,13.4,30.15,ENE,62,3.0,7.0,66,0.00,,,0.00,WeatherCatV1.10B1784,2013-02-21 21:31:00,
2013-02-21 15:36:00,22.9,13.6,30.15,East,100,2.0,6.0,67,0.00,,,0.00,WeatherCatV1.10B1784,2013-02-21 21:36:00,
2013-02-21 15:41:00,22.9,13.6,30.15,ENE,68,2.0,9.0,67,0.00,,,0.00,WeatherCatV1.10B1784,2013-02-21 21:41:00,
2013-02-21 15:46:00,22.8,13.5,30.15,NE,49,1.0,5.0,67,0.00,,,0.00,WeatherCatV1.10B1784,2013-02-21 21:46:00,
2013-02-21 15:51:00,22.7,13.8,30.15,ESE,120,3.0,8.0,68,0.00,,,0.00,WeatherCatV1.10B1784,2013-02-21 21:51:00,
2013-02-21 15:56:00,22.7,13.8,30.16,ENE,59,3.0,9.0,68,0.00,,,0.00,WeatherCatV1.10B1784,2013-02-21 21:56:00,
2013-02-21 16:01:00,22.6,14.0,30.15,NNE,31,6.0,9.0,69,0.00,,,0.00,WeatherCatV1.10B1784,2013-02-21 22:01:00,
2013-02-21 16:06:00,22.5,13.9,30.15,East,95,3.0,4.0,69,0.00,,,0.00,WeatherCatV1.10B1784,2013-02-21 22:06:00,
2013-02-21 16:11:00,22.4,13.8,30.15,ENE,65,2.0,5.0,69,0.00,,,0.00,WeatherCatV1.10B1784,2013-02-21 22:11:00,
2013-02-21 16:16:00,22.2,13.6,30.15,NE,35,5.0,10.0,69,0.00,,,0.00,WeatherCatV1.10B1784,2013-02-21 22:16:00,
2013-02-21 16:21:00,22.1,13.8,30.15,ENE,70,3.0,5.0,70,0.00,,,0.00,WeatherCatV1.10B1784,2013-02-21 22:21:00,
2013-02-21 16:26:00,22.1,13.8,30.15,East,82,1.0,8.0,70,0.00,,,0.00,WeatherCatV1.10B1784,2013-02-21 22:26:00,
2013-02-21 16:31:00,22.0,14.1,30.15,East,92,5.0,7.0,71,0.00,,,0.00,WeatherCatV1.10B1784,2013-02-21 22:31:00,
2013-02-21 16:36:00,21.8,13.9,30.14,ENE,70,1.0,6.0,71,0.00,,,0.00,WeatherCatV1.10B1784,2013-02-21 22:36:00,
2013-02-21 16:41:00,21.8,14.5,30.14,East,81,5.0,8.0,73,0.00,,,0.00,WeatherCatV1.10B1784,2013-02-21 22:41:00,
2013-02-21 16:46:00,21.6,14.9,30.14,East,86,1.0,3.0,75,0.00,,,0.00,WeatherCatV1.10B1784,2013-02-21 22:46:00,
2013-02-21 16:51:00,21.5,15.4,30.14,ESE,116,4.0,6.0,77,0.00,,,0.00,WeatherCatV1.10B1784,2013-02-21 22:51:00,
2013-02-21 16:56:00,21.1,15.6,30.14,ENE,70,1.0,4.0,79,0.00,,,0.00,WeatherCatV1.10B1784,2013-02-21 22:56:00,
2013-02-21 17:01:00,20.8,15.6,30.14,NE,49,3.0,8.0,80,0.00,,,0.00,WeatherCatV1.10B1784,2013-02-21 23:01:00,
2013-02-21 17:06:00,20.5,15.9,30.13,East,87,2.0,4.0,82,0.00,,,0.00,WeatherCatV1.10B1784,2013-02-21 23:06:00,
2013-02-21 17:11:00,20.2,16.2,30.13,ENE,65,4.0,4.0,84,0.00,,,0.00,WeatherCatV1.10B1784,2013-02-21 23:11:00,
2013-02-21 17:16:00,19.9,16.1,30.13,East,79,1.0,7.0,85,0.00,,,0.00,WeatherCatV1.10B1784,2013-02-21 23:16:00,
2013-02-21 17:21:00,19.7,16.2,30.12,ENE,77,1.0,6.0,86,0.00,,,0.00,WeatherCatV1.10B1784,2013-02-21 23:21:00,
2013-02-21 17:26:00,19.4,16.2,30.12,East,85,0.0,3.0,87,0.00,,,0.00,WeatherCatV1.10B1784,2013-02-21 23:26:00,
2013-02-21 17:31:00,19.3,16.1,30.12,North,353,1.0,5.0,87,0.00,,,0.00,WeatherCatV1.10B1784,2013-02-21 23:31:00,
2013-02-21 17:36:00,19.1,16.1,30.12,East,87,0.0,3.0,88,0.00,,,0.00,WeatherCatV1.10B1784,2013-02-21 23:36:00,
2013-02-21 17:41:00,19.0,16.0,30.12,ENE,61,4.0,4.0,88,0.00,,,0.00,WeatherCatV1.10B1784,2013-02-21 23:41:00,
2013-02-21 17:46:00,18.9,16.2,30.12,ENE,66,2.0,2.0,89,0.00,,,0.00,WeatherCatV1.10B1784,2013-02-21 23:46:00,
2013-02-21 17:51:00,18.7,15.7,30.12,ENE,70,0.0,4.0,88,0.00,,,0.00,WeatherCatV1.10B1784,2013-02-21 23:51:00,
2013-02-21 17:56:00,18.6,15.6,30.11,ENE,57,2.0,4.0,88,0.00,,,0.00,WeatherCatV1.10B1784,2013-02-21 23:56:00,
2013-02-21 18:01:00,18.5,15.8,30.11,ENE,74,1.0,4.0,89,0.00,,,0.00,WeatherCatV1.10B1784,2013-02-22 00:01:00,
2013-02-21 18:06:00,18.4,15.7,30.11,ENE,65,0.0,5.0,89,0.00,,,0.00,WeatherCatV1.10B1784,2013-02-22 00:06:00,
2013-02-21 18:11:00,18.2,15.3,30.11,ENE,61,2.0,2.0,88,0.00,,,0.00,WeatherCatV1.10B1784,2013-02-22 00:11:00,
2013-02-21 18:16:00,18.1,15.2,30.11,East,97,2.0,4.0,88,0.00,,,0.00,WeatherCatV1.10B1784,2013-02-22 00:16:00,
2013-02-21 18:21:00,18.0,15.1,30.11,ENE,62,1.0,3.0,88,0.00,,,0.00,WeatherCatV1.10B1784,2013-02-22 00:21:00,
2013-02-21 18:26:00,17.9,15.2,30.11,NE,49,2.0,3.0,89,0.00,,,0.00,WeatherCatV1.10B1784,2013-02-22 00:26:00,
2013-02-21 18:31:00,17.7,15.0,30.11,ENE,74,0.0,3.0,89,0.00,,,0.00,WeatherCatV1.10B1784,2013-02-22 00:31:00,
2013-02-21 18:36:00,17.7,15.0,30.11,ENE,74,0.0,5.0,89,0.00,,,0.00,WeatherCatV1.10B1784,2013-02-22 00:36:00,
2013-02-21 18:41:00,17.6,14.9,30.11,ENE,68,1.0,6.0,89,0.00,,,0.00,WeatherCatV1.10B1784,2013-02-22 00:41:00,
2013-02-21 18:46:00,17.5,14.8,30.11,East,91,0.0,5.0,89,0.00,,,0.00,WeatherCatV1.10B1784,2013-02-22 00:46:00,
2013-02-21 18:51:00,17.3,14.6,30.11,East,84,1.0,4.0,89,0.00,,,0.00,WeatherCatV1.10B1784,2013-02-22 00:51:00,
2013-02-21 18:56:00,17.2,14.5,30.11,NE,37,2.0,3.0,89,0.00,,,0.00,WeatherCatV1.10B1784,2013-02-22 00:56:00,
2013-02-21 19:01:00,17.1,14.4,30.11,ENE,68,0.0,12.0,89,0.00,,,0.00,WeatherCatV1.10B1784,2013-02-22 01:01:00,
2013-02-21 19:06:00,16.8,13.9,30.10,East,79,0.0,5.0,88,0.00,,,0.00,WeatherCatV1.10B1784,2013-02-22 01:06:00,
2013-02-21 19:11:00,16.7,14.0,30.10,ENE,61,4.0,5.0,89,0.00,,,0.00,WeatherCatV1.10B1784,2013-02-22 01:11:00,
2013-02-21 19:16:00,16.7,14.0,30.10,ENE,62,3.0,4.0,89,0.00,,,0.00,WeatherCatV1.10B1784,2013-02-22 01:16:00,
2013-02-21 19:21:00,16.6,13.9,30.10,ENE,72,0.0,3.0,89,0.00,,,0.00,WeatherCatV1.10B1784,2013-02-22 01:21:00,
2013-02-21 19:26:00,16.6,13.9,30.10,NE,47,1.0,4.0,89,0.00,,,0.00,WeatherCatV1.10B1784,2013-02-22 01:26:00,
2013-02-21 19:31:00,16.5,13.8,30.10,ESE,105,0.0,2.0,89,0.00,,,0.00,WeatherCatV1.10B1784,2013-02-22 01:31:00,
2013-02-21 19:36:00,16.5,13.8,30.10,ENE,63,0.0,2.0,89,0.00,,,0.00,WeatherCatV1.10B1784,2013-02-22 01:36:00,
2013-02-21 19:41:00,16.4,13.7,30.10,ENE,72,0.0,4.0,89,0.00,,,0.00,WeatherCatV1.10B1784,2013-02-22 01:41:00,
2013-02-21 19:46:00,16.4,13.7,30.10,NE,39,2.0,7.0,89,0.00,,,0.00,WeatherCatV1.10B1784,2013-02-22 01:46:00,
2013-02-21 19:51:00,16.3,13.6,30.10,North,10,0.0,4.0,89,0.00,,,0.00,WeatherCatV1.10B1784,2013-02-22 01:51:00,
2013-02-21 19:56:00,16.2,13.8,30.10,ENE,62,1.0,4.0,90,0.00,,,0.00,WeatherCatV1.10B1784,2013-02-22 01:56:00,
2013-02-21 20:01:00,16.2,13.5,30.10,NE,52,1.0,3.0,89,0.00,,,0.00,WeatherCatV1.10B1784,2013-02-22 02:01:00,
2013-02-21 20:06:00,16.1,13.4,30.10,NE,40,1.0,1.0,89,0.00,,,0.00,WeatherCatV1.10B1784,2013-02-22 02:06:00,
2013-02-21 20:11:00,16.1,13.7,30.10,North,353,0.0,4.0,90,0.00,,,0.00,WeatherCatV1.10B1784,2013-02-22 02:11:00,
2013-02-21 20:16:00,16.1,13.7,30.11,North,5,1.0,1.0,90,0.00,,,0.00,WeatherCatV1.10B1784,2013-02-22 02:16:00,
2013-02-21 20:21:00,16.1,13.7,30.11,East,83,1.0,6.0,90,0.00,,,0.00,WeatherCatV1.10B1784,2013-02-22 02:21:00,
2013-02-21 20:26:00,16.1,13.7,30.11,ENE,66,0.0,2.0,90,0.00,,,0.00,WeatherCatV1.10B1784,2013-02-22 02:26:00,
2013-02-21 20:31:00,16.1,13.7,30.11,NE,55,0.0,3.0,90,0.00,,,0.00,WeatherCatV1.10B1784,2013-02-22 02:31:00,
2013-02-21 20:36:00,16.1,13.7,30.11,ESE,110,0.0,4.0,90,0.00,,,0.00,WeatherCatV1.10B1784,2013-02-22 02:36:00,
2013-02-21 20:41:00,16.1,13.7,30.11,ENE,68,0.0,3.0,90,0.00,,,0.00,WeatherCatV1.10B1784,2013-02-22 02:41:00,
2013-02-21 20:46:00,16.1,13.7,30.10,NNE,30,0.0,6.0,90,0.00,,,0.00,WeatherCatV1.10B1784,2013-02-22 02:46:00,
2013-02-21 20:51:00,16.1,13.7,30.10,NE,37,2.0,3.0,90,0.00,,,0.00,WeatherCatV1.10B1784,2013-02-22 02:51:00,
2013-02-21 20:56:00,16.1,13.7,30.10,ENE,63,1.0,3.0,90,0.00,,,0.00,WeatherCatV1.10B1784,2013-02-22 02:56:00,
2013-02-21 21:01:00,16.1,13.7,30.10,NE,45,0.0,2.0,90,0.00,,,0.00,WeatherCatV1.10B1784,2013-02-22 03:01:00,
2013-02-21 21:06:00,16.1,13.7,30.10,NNE,32,1.0,3.0,90,0.00,,,0.00,WeatherCatV1.10B1784,2013-02-22 03:06:00,
2013-02-21 21:11:00,16.2,13.8,30.10,North,10,2.0,3.0,90,0.00,,,0.00,WeatherCatV1.10B1784,2013-02-22 03:11:00,
2013-02-21 21:16:00,16.2,13.8,30.10,NE,35,2.0,3.0,90,0.00,,,0.00,WeatherCatV1.10B1784,2013-02-22 03:16:00,
2013-02-21 21:21:00,16.2,13.8,30.10,NE,52,1.0,4.0,90,0.00,,,0.00,WeatherCatV1.10B1784,2013-02-22 03:21:00,
2013-02-21 21:26:00,16.2,13.8,30.10,NW,319,3.0,4.0,90,0.00,,,0.00,WeatherCatV1.10B1784,2013-02-22 03:26:00,
2013-02-21 21:31:00,16.2,13.8,30.10,NNE,14,2.0,6.0,90,0.00,,,0.00,WeatherCatV1.10B1784,2013-02-22 03:31:00,
2013-02-21 21:36:00,16.2,13.8,30.10,ENE,65,0.0,3.0,90,0.00,,,0.00,WeatherCatV1.10B1784,2013-02-22 03:36:00,
2013-02-21 21:41:00,16.2,13.8,30.10,ENE,64,0.0,1.0,90,0.00,,,0.00,WeatherCatV1.10B1784,2013-02-22 03:41:00,
2013-02-21 21:46:00,16.2,13.8,30.09,North,351,1.0,3.0,90,0.00,,,0.00,WeatherCatV1.10B1784,2013-02-22 03:46:00,
2013-02-21 21:51:00,16.2,13.8,30.09,NE,40,0.0,4.0,90,0.00,,,0.00,WeatherCatV1.10B1784,2013-02-22 03:51:00,
2013-02-21 21:56:00,16.2,13.8,30.09,NE,54,3.0,8.0,90,0.00,,,0.00,WeatherCatV1.10B1784,2013-02-22 03:56:00,
2013-02-21 22:01:00,16.2,13.8,30.09,NW,326,1.0,4.0,90,0.00,,,0.00,WeatherCatV1.10B1784,2013-02-22 04:01:00,
2013-02-21 22:06:00,16.2,13.8,30.09,NNE,16,0.0,4.0,90,0.00,,,0.00,WeatherCatV1.10B1784,2013-02-22 04:06:00,
2013-02-21 22:11:00,16.2,13.8,30.08,NE,56,0.0,3.0,90,0.00,,,0.00,WeatherCatV1.10B1784,2013-02-22 04:11:00,
2013-02-21 22:16:00,16.2,13.8,30.08,NNW,334,2.0,3.0,90,0.00,,,0.00,WeatherCatV1.10B1784,2013-02-22 04:16:00,
2013-02-21 22:21:00,16.2,13.8,30.08,ENE,67,1.0,5.0,90,0.00,,,0.00,WeatherCatV1.10B1784,2013-02-22 04:21:00,
2013-02-21 22:26:00,16.2,13.8,30.08,ENE,64,0.0,1.0,90,0.00,,,0.00,WeatherCatV1.10B1784,2013-02-22 04:26:00,
2013-02-21 22:31:00,16.1,13.7,30.07,ENE,64,0.0,4.0,90,0.00,,,0.00,WeatherCatV1.10B1784,2013-02-22 04:31:00,
2013-02-21 22:36:00,16.2,13.8,30.07,NE,47,2.0,3.0,90,0.00,,,0.00,WeatherCatV1.10B1784,2013-02-22 04:36:00,
2013-02-21 22:41:00,16.1,13.7,30.07,East,79,4.0,4.0,90,0.00,,,0.00,WeatherCatV1.10B1784,2013-02-22 04:41:00,
2013-02-21 22:46:00,16.2,13.8,30.07,ENE,74,1.0,4.0,90,0.00,,,0.00,WeatherCatV1.10B1784,2013-02-22 04:46:00,
2013-02-21 22:51:00,16.1,13.7,30.06,ENE,60,1.0,2.0,90,0.00,,,0.00,WeatherCatV1.10B1784,2013-02-22 04:51:00,
2013-02-21 22:56:00,16.1,13.7,30.06,NNW,336,0.0,4.0,90,0.00,,,0.00,WeatherCatV1.10B1784,2013-02-22 04:56:00,
2013-02-21 23:00:00,16.1,13.7,30.06,NNE,32,0.0,1.0,90,0.00,,,0.00,WeatherCatV1.10B1784,2013-02-22 05:00:00,
2013-02-21 23:05:00,16.1,13.7,30.06,NE,53,2.0,4.0,90,0.00,,,0.00,WeatherCatV1.10B1784,2013-02-22 05:05:00,
2013-02-21 23:10:00,16.1,13.7,30.06,NNE,18,4.0,5.0,90,0.00,,,0.00,WeatherCatV1.10B1784,2013-02-22 05:10:00,
2013-02-21 23:15:00,16.1,13.4,30.06,ENE,58,0.0,2.0,89,0.00,,,0.00,WeatherCatV1.10B1784,2013-02-22 05:15:00,
2013-02-21 23:20:00,16.1,13.4,30.05,ENE,60,4.0,5.0,89,0.00,,,0.00,WeatherCatV1.10B1784,2013-02-22 05:20:00,
2013-02-21 23:25:00,16.1,13.4,30.05,ENE,63,0.0,5.0,89,0.00,,,0.00,WeatherCatV1.10B1784,2013-02-22 05:25:00,
2013-02-21 23:30:00,16.1,13.4,30.05,ENE,76,0.0,4.0,89,0.00,,,0.00,WeatherCatV1.10B1784,2013-02-22 05:30:00,
2013-02-21 23:35:00,16.1,13.4,30.05,NE,54,0.0,2.0,89,0.00,,,0.00,WeatherCatV1.10B1784,2013-02-22 05:35:00,
2013-02-21 23:40:00,16.1,13.4,30.05,ENE,60,1.0,10.0,89,0.00,,,0.00,WeatherCatV1.10B1784,2013-02-22 05:40:00,
2013-02-21 23:45:00,16.1,13.7,30.05,ENE,60,0.0,2.0,90,0.00,,,0.00,WeatherCatV1.10B1784,2013-02-22 05:45:00,
2013-02-21 23:50:00,16.1,13.7,30.05,ENE,65,1.0,3.0,90,0.00,,,0.00,WeatherCatV1.10B1784,2013-02-22 05:50:00,
2013-02-21 23:55:00,16.1,13.7,30.05,East,81,0.0,4.0,90,0.00,,,0.00,WeatherCatV1.10B1784,2013-02-22 05:55:00,